Location: Baumgartsau
(48.4586°N, 14.0864°E)
Time: 02:16:16
(UTC+00:00)

SL-16 R/B - Pass Details

Date: 07 August 2020
Orbit: 843 x 845 km, 71.0° (Epoch: 26 September)

Event Time Altitude Azimuth Distance (km) Brightness Sun altitude
Rises 21:48:19 0° 330° (NNW) 3,416 6.8 -23.0°
Reaches altitude 10° 21:50:47 10° 328° (NNW) 2,477 5.7 -23.1°
Maximum altitude 21:56:25 68° 247° (WSW) 912 2.3 -23.4°
Enters shadow 21:57:36 53° 190° (S) 1,032 2.3 -23.5°
